Regional Weather Roundup
Issued by NWS Cleveland, OH

Home | Current Version | Previous Version | Graphics & Text | Print | Product List | Glossary On
Versions: 1 2 3 4 5 6 7 8 9 10 11 12 13 14 15 16 17 18 19 20 21 22 23 24 25 26 27 28 29 30 31 32 33 34 35 36 37 38 39 40 41 42 43 44 45 46 47 48 49 50
437
ASUS41 KCLE 221500
RWRCLE
OHIO REGIONAL WEATHER ROUNDUP
NATIONAL WEATHER SERVICE WILMINGTON, OH
1000 AM EST SUN JAN 22 2017

NOTE: "FAIR" INDICATES FEW OR NO CLOUDS BELOW 12,000 FEET WITH NO
SIGNIFICANT WEATHER AND/OR OBSTRUCTIONS TO VISIBILITY.

OHZ001>008-015>018-024>027-034-035-043-044-221600-
   NORTHWEST OHIO

CITY           SKY/WX    TMP DP  RH WIND       PRES   REMARKS
DEFIANCE       CLOUDY    46  45  96 CALM      29.62R
FINDLAY        CLOUDY    52  48  86 SE9       29.60F
TOLEDO EXPRESS PTSUNNY   46  46 100 CALM      29.62R FOG
TOLEDO EXEC    CLOUDY    49  49 100 SE7       29.62S FOG
LIMA           FAIR      54  52  93 SE7       29.60F
$$

OHZ009>014-019>023-028>033-038-089-221600-
   NORTHEAST OHIO

CITY           SKY/WX    TMP DP  RH WIND       PRES   REMARKS
CLE-HOPKINS    PTSUNNY   53  48  83 SE3       29.67R
CLE-LAKEFRONT  FAIR      54  50  86 SE9       29.64R
CUY CO. ARPT   PTSUNNY   55  52  88 S9        29.66R
LORAIN-ELYRIA  FAIR      49  46  90 S9        29.65R
ASHTABULA      CLOUDY    53  51  93 SE7       29.68R
AKRON-CANTON   CLOUDY    54  51  90 SW3       29.66R
WOOSTER        NOT AVBL
MANSFIELD      PTSUNNY   51  51 100 CALM      29.63F
YOUNGSTOWN     CLOUDY    52  49  89 SE5       29.67R
$$

OHZ042-051>053-060>062-070>072-077>081-221600-
  SOUTHWEST OHIO

CITY           SKY/WX    TMP DP  RH WIND       PRES   REMARKS
CINC-COVINGTON CLOUDY    52  51  97 N7        29.56S
CINC-LUNKEN    FAIR      47  47 100 CALM      29.58S
HAMILTON       FAIR      50  49  96 NE5       29.59F
DAYTON         NOT AVBL
WRIGHT-PAT AFB NOT AVBL
DAYTON GENERAL FAIR      50  48  93 NE8       29.58F FOG
WILMINGTON     FAIR      53  50  89 E7        29.57F
$$

OHZ036-037-039>041-045>050-054>059-063>069-073>076-082>088-221600-
  CENTRAL AND SOUTHEAST OHIO

CITY           SKY/WX    TMP DP  RH WIND       PRES   REMARKS
COLUMBUS       CLOUDY    52  49  89 N7        29.60F
OSU AIRPORT    FAIR      51  51 100 NE3       29.60F
BOLTON FIELD   SUNNY     50  50 100 N6        29.61F FOG
RICKENBACK AFB NOT AVBL
NEWARK         CLOUDY    50  48  93 VRB3      29.60F FOG
MARION         FAIR      52  50  93 CALM      29.63S
LANCASTER      PTSUNNY   51  50  96 CALM      29.61F FOG
ZANESVILLE     CLOUDY    53  49  86 NE3       29.62F
NEW PHILLY     PTSUNNY   50  49  96 CALM      29.65F FOG
$$




USA.gov is the U.S. government's official web portal to all federal, state and local government web resources and services.